2022-095B (53368 NORAD) Tracking and Keplerian Element Data

This shows tracking and keplerian element data for the satellite.

Feedback or suggestion? Click here.




ElementValue
Catalog53368
Name2022-095B
Epoch Orbit1583
Epoch Day325.07602199
Epoch Year2022
RAAN37.9386
Inclination97.3993
Eccentricity0.0076405
Argument of Perigee71.07
Mean Anonmoly25.243
Mean Motion15.26919838
Decay Rate0.0001044
L11 53368U 22095B 22325.07602199 .00010440 00000+0 36502-3 0 9998
L22 53368 97.3993 37.9386 0076405 71.0700 25.2430 15.26919838 15835



Live tracking and technical data element details for 2022-095B (NORAD 53368). 2022-095B can be tracked NOW for your location showing map with azimuth and elevation plus other details from your city location.







IsCatalogInMostPopularTable: catalog: 53368, numindb: 5
Update: records affected: 1



GetName: 53368 2022-095B

Hit Count: updated at: Tue, 29 Nov 2022 00:37:24 GMT